Wind_Speed
53 53 54 56 59 63 63 61 57 54 53 51 51 50 48 46 43 40 37 34 32 29 28 26 24 22 21 19 18 16 15 14 13 12 11 10 10 9 9 8 8 7 7 6 6 5 5 4 4
51 53 55 57 61 63 62 60 59 55 53 52 52 51 50 48 45 42 38 35 33 31 29 27 26 24 22 20 19 18 16 15 14 13 12 12 11 10 10 9 9 9 8 7 7 6 6 5 5
50 52 56 58 61 62 59 57 57 55 54 55 54 53 51 49 46 43 40 37 35 33 30 28 27 25 23 22 20 19 18 16 15 14 13 13 12 11 11 10 10 9 9 8 8 7 7 6 6
48 51 55 58 60 59 57 56 54 54 55 55 55 54 52 49 47 44 41 39 37 35 32 30 28 26 24 23 21 20 19 18 16 16 14 13 12 12 11 11 10 10 9 9 9 8 8 7 7
45 50 54 56 55 55 55 55 55 54 55 55 56 55 53 50 48 45 43 40 38 36 34 31 29 27 25 24 23 21 20 19 18 17 15 14 13 13 12 12 11 11 10 10 9 9 8 8 8
45 48 52 52 51 50 54 55 55 55 56 56 56 56 53 50 48 46 44 42 39 37 34 32 30 28 27 25 24 23 21 21 19 18 16 15 14 14 13 13 12 12 11 10 10 9 9 9 8
44 46 49 48 49 48 52 55 56 55 56 56 56 55 54 51 49 47 45 43 40 38 36 33 32 30 28 26 25 24 23 22 20 19 18 17 16 15 14 13 13 12 12 11 11 10 10 9 9
40 44 45 46 48 47 50 53 56 56 56 56 55 55 55 53 50 49 47 43 41 39 37 34 33 31 29 27 26 25 23 22 21 20 19 18 18 17 16 15 14 13 13 12 12 12 11 11 10
40 42 43 43 46 46 51 52 54 56 56 58 56 55 54 53 51 50 47 45 43 40 37 35 34 32 30 28 27 26 24 23 22 21 20 19 18 18 17 16 15 14 14 13 13 13 13 12 12
38 39 38 41 44 46 49 52 54 55 56 58 57 55 53 53 52 50 47 46 43 40 38 36 34 33 31 29 28 27 25 24 23 22 21 20 19 19 18 17 17 16 15 15 15 15 14 14 14
35 36 35 38 43 44 47 50 52 54 55 55 57 55 54 53 53 51 50 47 44 41 38 37 35 34 32 30 29 28 26 25 24 23 22 21 21 20 19 19 18 18 17 17 17 17 16 16 16
32 33 34 37 41 43 45 49 51 52 53 53 54 54 54 53 52 50 49 49 46 42 39 37 37 35 33 32 30 29 28 26 25 24 23 23 22 22 21 20 20 19 19 19 18 18 18 18 18
30 31 33 36 39 42 45 48 51 50 50 51 52 53 53 53 52 50 49 49 47 45 41 38 37 35 35 33 32 30 29 28 27 26 25 24 23 23 23 22 21 21 21 21 20 20 20 20 20
30 31 32 35 39 40 42 45 49 49 50 51 51 53 52 51 51 50 48 48 48 46 44 41 39 38 36 35 33 32 30 29 28 27 27 26 25 25 24 24 23 23 23 22 22 22 22 22 23
26 29 31 34 36 38 39 43 46 48 50 50 51 53 54 52 52 50 48 48 46 46 45 43 41 39 38 36 34 32 31 30 30 29 28 28 27 27 26 26 25 25 25 25 24 24 25 25 25
24 26 30 31 32 33 37 41 44 47 50 49 51 53 54 53 52 50 49 48 46 45 45 44 41 40 39 38 36 34 33 33 32 31 31 30 29 29 28 28 27 27 27 27 27 27 27 27 27
20 23 26 30 31 31 34 38 42 46 48 48 50 52 53 52 52 51 49 47 46 45 44 45 42 40 41 39 36 36 35 35 34 33 33 32 32 31 30 30 29 29 29 30 29 29 29 29 29
15 20 23 26 30 30 32 35 39 42 44 47 49 51 52 51 51 50 48 48 47 46 45 45 45 42 41 40 40 40 39 37 36 36 36 35 34 33 33 32 32 32 32 32 32 31 31 31 31
12 17 21 23 28 29 29 31 35 39 42 45 45 48 51 51 51 50 48 49 47 47 46 46 46 45 43 42 42 42 41 40 39 39 38 37 36 36 35 35 35 35 34 34 34 33 33 33 34
12 16 19 20 24 26 27 29 32 35 40 43 44 44 48 49 48 49 48 48 47 46 45 44 45 45 45 44 45 44 43 43 42 42 41 40 39 39 38 38 38 38 38 37 36 36 35 35 35
10 14 18 20 21 23 25 26 30 33 37 40 42 42 45 47 47 48 48 47 46 45 45 44 44 44 45 44 45 46 46 45 45 45 44 42 42 40 40 40 39 39 39 38 38 37 36 35 35
8 12 15 18 19 21 23 24 27 31 35 37 39 41 43 45 45 46 47 47 46 46 45 45 45 45 46 46 45 46 46 46 45 45 45 44 43 42 41 40 40 39 38 38 38 36 36 37 37
7 10 13 16 17 19 21 22 25 29 33 35 36 39 41 42 43 43 45 45 45 45 45 45 45 45 46 47 46 47 47 46 46 46 46 45 45 44 42 40 39 40 39 38 38 39 39 38 38
7 9 11 12 14 17 18 19 23 26 29 33 36 38 40 40 41 42 43 43 43 44 44 44 45 43 44 45 47 47 48 48 47 46 45 44 43 43 42 42 41 41 40 39 39 40 39 39 39
7 7 8 9 11 13 15 16 18 23 28 31 34 38 40 40 42 45 45 44 44 43 44 44 45 44 42 43 44 45 45 46 47 47 45 44 44 44 44 44 42 41 41 41 42 41 40 40 41
7 7 7 7 8 11 12 12 14 18 24 28 32 36 38 38 40 44 45 46 46 46 46 46 46 47 46 45 44 44 45 45 45 46 44 45 46 44 42 43 43 43 43 43 42 41 41 41 42
6 7 7 6 6 8 9 10 11 14 19 24 28 32 36 37 38 42 44 46 46 47 46 45 46 47 46 47 46 46 47 47 47 46 46 46 45 44 45 44 45 44 43 43 43 43 42 43 44
6 5 5 5 5 4 6 7 9 12 16 20 23 26 31 35 37 38 41 43 45 46 46 46 46 46 46 46 47 47 47 46 46 47 47 47 45 44 44 45 45 45 45 46 45 45 45 45 44
5 4 4 3 4 4 5 6 8 10 13 16 20 24 27 30 34 37 39 41 43 44 45 45 45 45 46 47 47 47 47 46 47 48 48 47 47 47 47 47 46 46 46 46 47 47 47 47 47
5 4 3 2 2 4 5 6 9 10 12 14 17 21 24 27 29 33 36 38 41 42 43 44 45 46 46 46 47 48 47 47 48 49 48 48 48 48 48 48 47 47 47 48 48 48 48 48 48
Wind_Direction
248 243 239 234 231 232 234 233 231 228 225 222 221 220 221 222 222 223 224 223 225 225 225 225 224 224 223 223 223 221 219 218 219 220 222 225 229 235 239 244 247 249 253 259 263 262 267 271 273
245 240 235 233 231 232 233 232 229 226 223 220 219 218 219 220 220 221 221 221 222 223 224 224 224 223 223 223 223 222 221 221 221 222 224 226 229 233 240 245 248 250 252 255 257 259 263 265 265
241 237 233 231 231 232 232 230 227 222 220 218 218 217 217 218 219 218 219 219 220 221 223 224 224 223 223 223 223 223 223 223 222 222 223 226 231 234 239 243 248 249 249 253 255 257 259 261 262
239 235 232 231 231 231 229 227 223 219 217 216 215 215 216 216 216 216 217 219 220 220 221 222 223 223 223 223 223 223 223 224 223 223 224 227 231 234 239 243 247 248 248 251 254 256 258 258 261
236 233 231 230 228 227 224 223 220 217 215 214 213 214 214 212 214 215 216 217 219 219 220 221 222 223 223 223 223 223 223 224 224 224 224 227 232 236 240 244 247 247 248 251 254 256 257 257 262
232 230 229 229 226 224 220 218 217 215 213 213 212 212 211 210 211 213 215 216 218 218 218 220 222 222 221 221 222 223 223 223 224 225 226 229 233 237 240 244 245 246 248 250 252 255 257 258 261
230 228 229 227 224 220 217 216 214 212 212 212 212 210 209 209 209 211 213 213 214 217 218 219 221 220 219 220 221 223 224 224 225 226 228 229 233 236 240 243 243 246 247 249 252 254 257 259 261
227 225 228 224 222 218 214 214 214 211 210 210 210 208 208 208 207 209 211 212 212 214 216 217 218 219 219 220 221 223 224 225 225 227 228 230 233 236 240 242 243 245 247 249 252 254 256 259 261
225 224 224 221 218 216 213 211 211 210 210 210 210 208 206 207 208 208 210 211 213 215 216 217 217 218 218 220 221 223 225 226 227 228 228 230 233 237 239 241 242 244 246 249 252 254 256 258 262
223 221 221 218 215 213 212 210 211 209 208 209 209 208 206 207 208 208 210 212 214 215 217 217 216 218 218 220 222 223 225 226 227 228 229 231 234 237 239 240 241 244 246 249 252 254 256 259 263
220 219 217 215 213 212 211 210 211 211 209 208 208 207 206 206 208 209 210 210 212 215 217 217 218 219 219 220 221 223 224 226 228 229 231 232 235 237 239 240 241 244 247 250 253 256 258 261 264
216 212 213 213 211 210 210 209 210 210 209 209 207 207 205 205 207 207 209 211 211 213 216 218 219 219 219 220 221 222 224 226 228 231 232 234 236 238 239 241 243 246 248 251 254 257 260 262 265
212 210 210 208 208 211 211 209 211 209 208 208 206 206 205 206 207 209 210 211 212 212 214 217 220 220 220 221 222 223 225 227 230 231 234 235 237 239 241 243 245 248 250 253 256 258 261 264 267
215 213 213 211 208 207 211 209 210 207 206 207 207 206 206 205 206 209 211 211 212 214 215 217 220 220 222 222 222 223 226 228 230 233 235 236 238 241 243 245 247 250 252 255 257 260 262 265 268
216 215 213 213 208 208 209 209 208 207 207 207 207 207 208 207 206 209 212 213 213 216 217 217 219 220 221 222 223 224 227 230 232 234 236 237 239 241 244 247 249 251 253 256 259 261 264 266 268
214 213 213 213 209 208 209 208 208 208 208 207 207 208 210 209 209 210 212 214 215 217 218 217 218 219 221 223 224 226 229 231 233 235 238 239 240 242 245 247 250 252 254 257 259 262 264 266 268
213 212 211 210 209 209 207 206 209 210 208 207 207 208 210 210 211 211 212 212 214 217 219 219 219 219 222 223 226 228 230 232 234 237 240 241 242 244 246 248 251 254 256 258 260 262 264 267 268
209 210 205 204 206 208 206 204 208 210 209 208 207 208 208 210 212 214 215 215 218 219 220 221 222 222 225 227 229 230 232 233 235 238 240 242 244 246 248 251 253 255 257 259 260 263 265 267 269
204 201 199 201 202 206 208 206 207 211 210 209 210 210 210 213 215 217 217 218 219 221 223 224 225 226 228 229 231 232 234 236 237 239 241 243 245 247 249 251 254 255 257 259 261 264 266 268 269
200 200 200 199 201 206 209 208 206 211 213 212 211 211 212 214 216 219 222 223 220 221 224 226 227 227 229 231 232 233 234 236 237 239 242 244 246 248 250 252 254 255 257 260 262 264 265 268 270
194 199 202 202 203 204 205 208 210 212 213 212 213 213 213 215 218 220 223 226 226 226 228 229 228 229 229 233 233 233 234 237 239 241 241 243 246 249 251 252 253 255 257 258 259 263 264 268 270
194 195 199 203 206 208 210 212 215 215 216 215 215 215 215 218 221 224 225 228 230 231 232 233 233 233 231 232 233 234 236 239 241 243 243 244 247 249 251 251 253 254 256 258 259 261 264 267 271
186 200 202 206 208 210 214 216 214 217 220 218 218 218 217 219 220 222 225 228 231 233 235 236 237 237 236 235 236 238 239 240 241 243 244 244 245 248 251 252 252 255 258 261 262 264 266 269 271
176 189 200 206 208 212 213 217 215 218 220 220 221 221 221 221 223 225 227 230 233 235 236 237 239 240 240 239 239 241 243 243 244 246 247 246 247 249 250 253 255 258 261 263 264 266 268 270 273
157 169 182 193 201 210 215 220 219 219 222 223 224 225 226 226 227 229 231 232 234 235 237 239 241 241 242 241 242 243 245 244 245 246 247 248 250 251 253 255 259 262 263 263 265 268 269 271 273
152 159 168 177 188 199 209 218 219 222 223 226 227 227 228 228 229 230 232 234 236 237 239 242 244 244 245 245 246 245 246 247 248 247 248 249 250 253 256 257 259 262 263 264 266 268 270 272 275
140 151 156 165 179 188 201 210 217 224 227 229 230 231 232 233 235 235 236 237 237 240 242 244 246 246 247 247 248 249 249 249 251 251 252 252 254 256 258 260 261 261 262 265 267 269 272 275 277
118 133 150 168 181 198 200 211 224 230 235 235 237 238 237 237 240 240 239 240 240 241 243 245 247 247 248 249 251 251 252 252 252 252 253 255 257 259 261 261 261 263 265 267 269 271 274 275 278
99 122 149 174 201 224 222 229 231 234 235 237 240 243 242 244 245 245 245 246 246 247 248 249 250 251 252 252 253 254 254 255 255 256 257 258 259 261 262 263 263 266 268 269 272 272 274 277 278
92 109 130 164 202 234 246 244 241 243 244 243 243 245 247 249 251 250 250 250 251 251 251 252 252 253 254 255 256 257 258 258 258 259 259 260 261 262 263 264 264 266 267 269 271 272 274 276 277
Height
5719 5724 5728 5731 5733 5735 5742 5755 5766 5776 5785 5793 5800 5805 5811 5817 5824 5832 5836 5840 5843 5847 5850 5853 5856 5859 5861 5863 5865 5867 5869 5870 5872 5873 5875 5876 5877 5878 5880 5880 5881 5882 5883 5883 5883 5884 5884 5884 5884
5705 5710 5715 5717 5718 5722 5733 5747 5757 5769 5778 5786 5792 5797 5803 5810 5817 5824 5830 5834 5838 5843 5847 5850 5853 5856 5858 5860 5863 5865 5867 5868 5870 5871 5873 5874 5876 5877 5878 5879 5880 5881 5881 5882 5882 5883 5883 5883 5884
5692 5696 5700 5703 5705 5714 5727 5739 5750 5761 5769 5776 5783 5789 5796 5804 5811 5818 5824 5829 5834 5839 5842 5846 5850 5852 5855 5858 5860 5862 5864 5866 5868 5869 5871 5872 5874 5875 5876 5877 5878 5879 5880 5881 5881 5882 5882 5882 5883
5680 5684 5687 5691 5696 5708 5721 5732 5742 5751 5758 5766 5774 5781 5789 5798 5806 5812 5818 5824 5829 5834 5838 5842 5846 5849 5852 5854 5857 5859 5861 5863 5865 5867 5869 5870 5872 5873 5875 5876 5877 5878 5878 5879 5880 5880 5881 5881 5882
5668 5672 5676 5679 5689 5701 5712 5722 5732 5740 5749 5757 5766 5774 5783 5792 5799 5806 5812 5818 5824 5829 5834 5838 5842 5845 5848 5851 5854 5856 5858 5861 5863 5864 5866 5868 5870 5871 5873 5874 5875 5876 5877 5877 5878 5879 5879 5880 5880
5657 5661 5666 5672 5682 5693 5703 5713 5722 5731 5740 5749 5757 5766 5776 5784 5792 5799 5806 5813 5818 5824 5829 5833 5837 5841 5845 5848 5850 5853 5855 5858 5860 5862 5864 5866 5867 5869 5870 5872 5873 5874 5875 5876 5876 5877 5878 5878 5879
5649 5654 5658 5667 5675 5684 5695 5704 5713 5723 5732 5741 5750 5759 5769 5777 5785 5792 5800 5807 5813 5818 5823 5828 5832 5837 5840 5844 5847 5850 5852 5855 5857 5859 5861 5863 5865 5867 5868 5869 5871 5872 5873 5874 5875 5875 5876 5877 5877
5640 5647 5651 5659 5667 5677 5687 5695 5705 5715 5725 5734 5742 5752 5762 5771 5778 5786 5793 5800 5807 5813 5819 5823 5828 5832 5836 5840 5843 5846 5849 5852 5854 5856 5858 5860 5862 5864 5865 5867 5868 5869 5870 5872 5872 5873 5874 5875 5875
5633 5639 5644 5654 5661 5670 5679 5687 5697 5706 5717 5725 5734 5746 5756 5764 5771 5778 5787 5794 5801 5807 5813 5819 5823 5827 5832 5836 5839 5842 5845 5848 5851 5853 5855 5857 5859 5861 5862 5864 5865 5867 5868 5869 5870 5871 5872 5872 5873
5627 5633 5641 5649 5656 5663 5672 5681 5690 5699 5709 5718 5729 5739 5748 5757 5765 5773 5782 5789 5796 5803 5809 5814 5819 5823 5827 5831 5835 5839 5842 5845 5847 5849 5851 5854 5856 5858 5859 5861 5862 5864 5865 5866 5867 5868 5869 5870 5870
5622 5629 5636 5643 5650 5657 5666 5675 5683 5693 5702 5712 5723 5733 5742 5751 5759 5767 5776 5784 5791 5797 5803 5809 5814 5818 5822 5827 5831 5834 5838 5840 5843 5846 5848 5850 5852 5854 5856 5857 5859 5860 5862 5863 5864 5865 5866 5867 5867
5619 5625 5631 5638 5645 5652 5661 5669 5677 5687 5698 5708 5718 5727 5737 5746 5753 5761 5769 5778 5785 5791 5798 5803 5808 5813 5817 5822 5826 5830 5833 5836 5839 5842 5844 5846 5848 5850 5852 5854 5855 5857 5858 5859 5860 5861 5862 5863 5863
5616 5622 5627 5634 5641 5649 5656 5664 5672 5682 5692 5702 5712 5721 5731 5740 5748 5755 5763 5771 5778 5785 5792 5797 5802 5807 5812 5817 5821 5825 5828 5832 5835 5837 5840 5842 5844 5846 5848 5850 5851 5853 5854 5855 5856 5857 5858 5859 5859
5614 5618 5624 5630 5637 5645 5653 5661 5668 5678 5687 5696 5706 5716 5725 5734 5742 5750 5757 5765 5772 5779 5785 5791 5797 5801 5806 5811 5815 5819 5823 5827 5830 5832 5835 5837 5839 5842 5843 5845 5847 5848 5849 5851 5852 5852 5853 5854 5854
5611 5616 5622 5627 5634 5641 5649 5657 5665 5675 5683 5692 5701 5711 5720 5728 5736 5744 5752 5759 5766 5772 5779 5785 5791 5795 5800 5805 5809 5814 5817 5821 5824 5827 5830 5832 5834 5836 5838 5840 5842 5843 5844 5846 5847 5847 5848 5849 5849
5610 5614 5620 5626 5632 5639 5648 5655 5663 5670 5679 5687 5696 5705 5714 5723 5731 5739 5746 5752 5758 5765 5772 5778 5784 5790 5795 5799 5804 5808 5811 5815 5818 5821 5824 5826 5829 5831 5833 5835 5836 5838 5839 5840 5841 5842 5843 5843 5844
5609 5614 5618 5625 5631 5637 5645 5653 5660 5667 5675 5683 5692 5700 5709 5718 5726 5732 5739 5746 5752 5758 5765 5772 5777 5783 5788 5793 5797 5801 5805 5808 5812 5815 5818 5820 5822 5825 5827 5829 5830 5832 5833 5834 5835 5836 5837 5837 5838
5610 5614 5618 5624 5630 5636 5643 5650 5657 5664 5672 5679 5688 5696 5705 5713 5720 5727 5733 5740 5745 5752 5759 5765 5771 5776 5781 5785 5789 5793 5798 5801 5805 5808 5811 5814 5816 5818 5820 5822 5824 5825 5827 5828 5829 5829 5830 5831 5831
5610 5614 5618 5624 5629 5635 5641 5647 5654 5661 5668 5676 5684 5692 5700 5708 5715 5721 5727 5734 5740 5746 5752 5758 5764 5769 5774 5778 5782 5786 5791 5794 5798 5801 5804 5806 5809 5811 5813 5815 5817 5818 5819 5820 5821 5822 5823 5823 5824
5612 5615 5619 5624 5629 5635 5640 5646 5652 5659 5666 5672 5680 5688 5696 5703 5709 5716 5722 5728 5735 5740 5745 5751 5756 5762 5767 5771 5775 5779 5783 5786 5789 5792 5795 5798 5801 5803 5805 5807 5809 5810 5811 5812 5813 5814 5815 5815 5816
5613 5616 5620 5624 5629 5634 5640 5645 5650 5657 5663 5669 5676 5683 5690 5698 5705 5711 5717 5722 5729 5734 5739 5744 5749 5754 5759 5763 5767 5770 5773 5777 5780 5784 5787 5790 5792 5794 5796 5798 5800 5801 5802 5804 5805 5806 5806 5807 5807
5613 5616 5620 5624 5629 5634 5640 5644 5649 5654 5660 5667 5673 5679 5686 5693 5700 5706 5711 5717 5723 5728 5732 5737 5742 5747 5751 5755 5759 5762 5766 5769 5773 5776 5778 5781 5782 5785 5787 5789 5790 5792 5793 5795 5796 5797 5798 5798 5799
5614 5617 5621 5625 5629 5633 5638 5643 5649 5652 5658 5664 5670 5676 5682 5688 5694 5700 5706 5712 5717 5721 5726 5730 5734 5738 5742 5746 5750 5753 5757 5761 5764 5766 5769 5771 5773 5775 5778 5780 5781 5783 5785 5786 5787 5788 5789 5789 5790
5615 5618 5621 5625 5628 5633 5637 5642 5647 5650 5655 5661 5666 5671 5677 5683 5688 5694 5700 5705 5710 5715 5719 5723 5727 5730 5733 5737 5741 5745 5748 5751 5754 5757 5759 5762 5764 5767 5769 5770 5772 5774 5775 5777 5777 5778 5779 5780 5780
5617 5621 5623 5626 5629 5633 5636 5640 5645 5649 5653 5658 5663 5668 5674 5679 5683 5689 5694 5699 5703 5708 5712 5716 5719 5723 5724 5728 5732 5735 5738 5741 5744 5747 5750 5752 5754 5757 5759 5761 5763 5765 5766 5767 5768 5768 5769 5770 5770
5619 5623 5626 5627 5629 5632 5636 5639 5644 5646 5650 5655 5659 5664 5669 5674 5678 5683 5688 5692 5696 5700 5704 5707 5710 5714 5716 5719 5722 5725 5728 5731 5734 5737 5739 5742 5745 5747 5749 5751 5753 5754 5756 5757 5758 5759 5759 5760 5760
5622 5624 5626 5629 5630 5633 5636 5639 5642 5645 5648 5652 5656 5660 5665 5669 5673 5677 5680 5685 5689 5692 5696 5699 5702 5704 5707 5709 5712 5715 5718 5721 5723 5726 5729 5732 5734 5737 5739 5741 5742 5744 5745 5746 5747 5748 5748 5749 5749
5625 5626 5628 5630 5631 5633 5636 5638 5641 5643 5646 5649 5653 5656 5660 5664 5667 5670 5674 5677 5680 5684 5687 5689 5692 5694 5696 5699 5701 5704 5707 5710 5713 5715 5718 5720 5723 5725 5727 5730 5731 5733 5734 5735 5736 5737 5737 5738 5738
5627 5628 5629 5631 5632 5634 5636 5640 5640 5642 5644 5647 5650 5652 5655 5658 5661 5663 5666 5669 5671 5674 5677 5679 5682 5683 5685 5687 5690 5692 5695 5698 5701 5704 5707 5709 5712 5714 5716 5719 5720 5722 5723 5724 5725 5726 5726 5726 5726
5628 5629 5630 5632 5633 5634 5636 5641 5639 5640 5642 5644 5646 5648 5650 5652 5654 5656 5658 5660 5663 5665 5667 5669 5672 5673 5675 5676 5679 5681 5684 5687 5690 5693 5695 5698 5701 5703 5705 5707 5709 5710 5711 5712 5713 5714 5715 5715 5715